Regional Weather Roundup
Issued by NWS

Home | Current Version | Previous Version | Graphics & Text | Print | Product List | Glossary On
Versions: 1 2 3 4 5 6 7 8 9 10 11 12 13 14 15 16 17 18 19 20 21 22 23 24 25 26 27
000
ASUS45 KBOU 241107
RWRCO

WEATHER ROUNDUP FOR COLORADO
NATIONAL WEATHER SERVICE DENVER/BOULDER CO
500 AM MDT FRI OCT 24 2014

NOTE: "FAIR" INDICATES FEW OR NO CLOUDS BELOW 12000 FEET WITH NO
SIGNIFICANT WEATHER AND/OR OBSTRUCTIONS TO VISIBILITY.

COZ001>005-013-030-031-241200-
...NORTHWEST COLORADO...

CITY           SKY/WX    TMP DP  RH WIND       PRES   REMARKS
CRAIG          CLEAR     31  28  89 SE3       30.28R
HAYDEN         CLEAR     39  28  65 E13       30.28S
MEEKER         CLEAR     36  32  85 CALM      30.29R
MOUNT WERNER   NOT AVBL
STEAMBOAT SPGS CLEAR     32  29  89 CALM      30.31R
WALDEN         MOCLDY    43  23  45 E15G23    30.31F
$$

COZ006>008-011-241200-
...WEST CENTRAL VALLEYS...

CITY           SKY/WX    TMP DP  RH WIND       PRES   REMARKS
GRAND JUNCTION CLEAR     48  35  60 S7        30.23R
MONTROSE       CLEAR     39  31  72 SE7       30.31S
EAGLE          NOT AVBL
RIFLE          PTCLDY    36  33  89 CALM      30.30R
DELTA          CLEAR     42  35  76 CALM      30.29R
NUCLA          CLEAR     43  28  56 SE7       30.34S
$$

COZ017>023-064>068-241200-
...SOUTHWEST COLORADO...

CITY           SKY/WX    TMP DP  RH WIND       PRES   REMARKS
DURANGO        PTCLDY    34  32  92 CALM      30.35S
CORTEZ         CLEAR     33  28  81 CALM      30.32R
PAGOSA SPRINGS PTCLDY    36  36  97 CALM      30.40S
TELLURIDE      PTCLDY    40  22  49 E3        30.48S
WOLF CREEK PAS PTCLDY    36  23  60 SW13        N/A
$$

COZ009-010-012-014-032>034-037-058>063-241200-
...CENTRAL COLORADO...

CITY           SKY/WX    TMP DP  RH WIND       PRES   REMARKS
ASPEN          PTCLDY    36  24  62 S7        30.36S
BUENA VISTA    PTCLDY    35  26  69 NW6       30.38S WCI  29
COPPER MTN     CLEAR     41  12  30 S14G21    30.56S
BERTHOUD PASS  FAIR      34  32  93 W32G41    30.53S WCI  20
COTTONWOOD PAS PTCLDY    48  14  25 W6        30.46S
GUNNISON       PTCLDY    27  21  80 CALM      30.47R
KREMMLING      PTCLDY    30  28  93 CALM        N/A
LEADVILLE      PTCLDY    28  20  71 CALM      30.45S
MONARCH PASS   PTCLDY    34  25  69 W25       30.67S WCI  21
SALIDA         PTCLDY    44  27  51 NW17      30.43R
SUNLIGHT       PTCLDY    39  27  60 CALM      30.51R
WILKERSON PASS NOT AVBL
$$

COZ069>075-241200-
...SAN LUIS VALLEY/SANGRE DE CRISTO MOUNTAINS...

CITY           SKY/WX    TMP DP  RH WIND       PRES   REMARKS
ALAMOSA        MOCLDY    26  23  88 E3        30.39R
LA VETA PASS   CLEAR     41  28  60 S14G28    30.44S
SAGUACHE       PTCLDY    37  28  70 N13       30.41R
$$

COZ035-036-038>040-241200-
...NORTHERN COLORADO FRONT RANGE...

CITY           SKY/WX    TMP DP  RH WIND       PRES   REMARKS
DENVER INTL AP CLOUDY    56  29  35 S7        30.14R
DMNS CITY PARK   N/A     57  28  33 SE5       30.14R
AURORA         MOCLDY    55  27  33 S6        30.16R
FRONT RANGE AP CLOUDY    61  30  31 S14       30.15S
ERIE MUNI ARPT CLOUDY    51  34  51 CALM      30.13R
BOULDER MUN AP CLOUDY    61  27  27 W8        30.13S
CENTENNIAL     CLOUDY    59  24  26 S8        30.17R
BROOMFIELD     CLOUDY    59  23  25 SW6       30.16R
FORT COLLINS   CLOUDY    50  34  53 CALM      30.14R
LONGMONT       CLOUDY    49  37  62 NW5       30.14S
$$

COZ041-046-047-076>085-087-088-241200-
...PIKES PEAK/PALMER DIVIDE AND SOUTHERN FOOTHILLS...

CITY           SKY/WX    TMP DP  RH WIND       PRES   REMARKS
COLO. SPRINGS  CLOUDY    47  33  58 NE7       30.22S
A. F. ACADEMY  CLOUDY    48  30  49 VRB5      30.22S
ELLICOTT       NOT AVBL
FALCON         CLOUDY    47  25  41 NW7       30.25R
FORT CARSON    MOCLDY    45  32  62 NW6       30.18S
LIMON          MOCLDY    40  34  79 N5        30.16R
MONUMENT HILL  CLOUDY    50  23  34 S7        30.24S
TRINIDAD       CLEAR     50  34  54 W13       30.20F
$$

COZ042>045-048>051-090-091-241200-
...NORTHEAST COLORADO...

CITY           SKY/WX    TMP DP  RH WIND       PRES   REMARKS
GREELEY ARPT   CLOUDY    45  34  65 CALM      30.12R
AKRON          CLOUDY    54  34  46 SW10      30.09S
BURLINGTON     PTCLDY    51  39  63 W10       30.09R
WRAY           PTCLDY    51  38  63 SW9       30.04S
STERLING       CLOUDY    45  39  81 S5        30.06S
HOLYOKE        NOT AVBL
FORT MORGAN    CLOUDY    46  36  68 S3        30.10R
$$

COZ086-089-092>099-241200-
...SOUTHEAST COLORADO...

CITY           SKY/WX    TMP DP  RH WIND       PRES   REMARKS
PUEBLO         PTCLDY    42  34  73 CALM      30.14S
LA JUNTA       CLEAR     48  36  63 W6        30.12S
LAMAR          CLEAR     43  40  89 W8        30.08S
SPRINGFIELD      N/A     53  46  77 W5        30.11F
$$



USA.gov is the U.S. government's official web portal to all federal, state and local government web resources and services.